Location: Houhaj�rvi
(61.2833°N, 23.0000°E)
Time: 20:02:42
(UTC+00:00)

Terra - Pass Details

Date: 27 February 2020
Orbit: 701 x 703 km, 98.2° (Epoch: 03 April)

Event Time Altitude Azimuth Distance (km) Brightness Sun altitude
Exits shadow 19:57:24 54° 343° (NNW) 861 2.4 -29.1°
Drops below altitude 10° 20:01:06 10° 342° (NNW) 2,187 5.1 -29.4°
Sets 20:03:22 0° 343° (NNW) 3,110 6.0 -29.6°
